Location: Saratoga Springs
(43.0831°N, 73.7850°W)
Time: 02:48:51
(UTC-04:00)

Vanguard 3 - Pass Details

Date: 23 April 2024
Orbit: 509 x 3232 km, 33.3° (Epoch: 26 May)

Event Time Altitude Azimuth Distance (km) Brightness Sun altitude
Exits shadow 01:48:14 24° 143° (SE) 4,392 10.5 -32.8°
Drops below altitude 10° 01:57:14 10° 103° (ESE) 4,709 11.1 -32.3°
Sets 02:01:18 0° 90° (E) 5,301 11.5 -32.1°
